Weather in Berezovaya Luka

Russia / Saratov Oblast     52°37′14″N   48°25′56″E
temp.,
°C
wind,
m/s
gust,
m/s
humid.,
%
clouds,
%
prec.,
mm/h
press.,
hPa
HPBL,
m
25 february, thu
thu2501:00−26nw228847 0.0 103720
04:00−25wnw228660 0.0 103720
07:00−24ssw3389100 0.0 103547
10:00−21ssw4790100 0.0 1033213
13:00−18ssw61091100 0.1 1030340
16:00−16s81395100 1.2 1026528
19:00−14ssw81494100 1.7 1023681
22:00−12ssw71394100 3.6 1019641
26 february, fri
fri2601:00−10s61194100 0.9 1016471
04:00−10s4895100 1.8 1015319
07:00−10s3596100 0.4 101395
10:00−9sse229694 0.5 101393
13:00−6se229294 0.1 1013222
16:00−6se239596 0.2 1012203
19:00−5se5796100 0.8 1009205
22:00+1s61199100 1.8 1006305
27 february, sat
sat2701:00+2sw612100100 3.3 1002304
04:00+2wsw51199100 3.8 1001283
07:000wsw5109192 0.1 1001212
10:00+1wsw6119394 0.1 1001441
13:00+1wsw61110093 0.1 1001467
16:00+1wsw5109796 0.1 1001403
19:00+1sw589799 0.1 1001315
22:000sw4895100 0.1 1001266
28 february, sun
sun2801:00−3sw4796100 0.0 1000142
04:00−4sw3595100 0.3 1001100
07:00−3sw3597100 0.4 1001133
10:00−1nw3598100 1.5 1003337
13:00−7n5893100 0.4 1005408
16:00−8n6992100 0.5 1007505
19:00−11n5119096 0.1 1010411
22:00−15nnw5109051 0.1 1013264
1 march, mon
mon101:00−15nnw5109167 0.0 1014262
04:00−16nnw499375 0.0 1016210
07:00−16nnw599494 0.1 1018364
10:00−17n589087 0.1 1020378
13:00−15nnw588849 0.0 1022431
16:00−13nnw588862 0.0 1022466
19:00−16nnw459221 0.0 102496
22:00−18nw239210 0.0 102520